User: anonymous   Login
Location: Edoum�
(0.9447°N, 10.6482°E)
Time: 01:11:36
(UTC+00:00)
Language:

Ariane 3 Deb - Orbit

View from above orbital plane
View from above orbital plane
View from above satellite
View from above satellite

Ground track
Ground track

The orbit data is extracted from the following two-line orbital elements,

1 18571U 87078F   21127.36291814  .00006317  00000-0  59138-3 0  9995
2 18571   6.7331 122.8204 5744544  86.4375 333.9865  4.46761010344916
Epoch (UTC): 07 May 2021 08:42:36
Eccentricity: 0.5744544
inclination: 6.7331°
perigee height: 248 km
apogee height: 18139 km
right ascension of ascending node: 122.8204°
argument of perigee: 86.4375°
revolutions per day: 4.46761010
mean anomaly at epoch: 333.9865°
orbit number at epoch: 34491

The dashed part of the orbit path shows where the satellite is in the earth's shadow,  

DLR